NSS 806 (INTELSAT 806)

导读 | 豆包AI

NSS 806(原称INTELSAT 806)是SES于1998年2月28日发射的商用通信卫星,隶属于国际通信卫星系列。该卫星定位于地球静止轨道,主要提供跨区域通信服务,支持电话、电视传输、数据通信等业务,服务覆盖美洲及大西洋区域,为多国电信运营商提供转发器租赁服务,助力洲际通信互联互通,是国际卫星通信网络中重要的空间基础设施。

基本信息
目录编号:
25239
目录名称:
NSS 806 (INTELSAT 806)
国际标识:
1998-014A
轨道中心:
EARTH
卫星名称:
NSS 806 (INTELSAT 806)
卫星全名:
--
卫星状态:
在轨 (已飞行10289 天)
发射日期:
1998-02-28 UTC
国别 :
(SES)
星等 :
--
轨道信息
数据来源 国际轨道数据 AOE轨道数据
星历时间 2026-04-30T14:17:26+0800
23小时前
查看轨道信息
2026-04-30T07:00:00+0800
1天前
查看轨道信息
半长轴 42502.435km 42502.549km
偏心率 0.0001744 0.0001681
轨道倾角 7.005° 7.004°
近地点辐角 106.938° 111.971°
升交点赤经 70.303° 70.307°
平近点角 80.718° 327.326°
近地点 36116.885km 36117.267km
远地点 36131.711km 36131.557km
周期 1453.384分钟 1453.390分钟
每日圈数 0.990791 0.990787
详细信息
使用方式:
暂无
2D轨道图
3D轨道图
轨道高度分析图
轨道倾角分析图
轨道综合分析图
查看轨道综合分析图